Weather History for North Adams, MA

Change the Weather History Date:

Wednesday, January 2, 2013

  Actual Average Record
Temperature  
Mean Temperature 14 °F -  
Max Temperature 24 °F 32 °F 57 °F (2000)
Min Temperature 1 °F 18 °F -4 °F (1999)
Degree Days  
Heating Degree Days 52    
Moisture  
Dew Point 5 °F    
Average Humidity 62    
Maximum Humidity 73    
Minimum Humidity 50    
Precipitation  
Precipitation 0.00 in - - ()
Sea Level Pressure  
Sea Level Pressure 30.01 in    
Wind  
Wind Speed 9 mph (West)    
Max Wind Speed 18 mph    
Max Gust Speed 32 mph    
Visibility 9 miles    
Events Snow    
Averages and records for this station are not official NWS values.
T = Trace of Precipitation, MM = Missing Value Source: NWS Daily Summary

Daily Weather History Graph

Daily Weather History Graph

Search for Another Location

Airport:

Trip Planner

Search our weather history database for the weather conditions in past years. The results will help you decide how hot, cold, wet, or windy it might be!

Date:

Astronomy

Jan. 02, 2013 Rise Set
Actual Time 7:23 AM EST 4:30 PM EST
Civil Twilight 6:51 AM EST 5:02 PM EST
Nautical Twilight 6:15 AM EST 5:38 PM EST
Astronomical Twilight 5:41 AM EST 6:12 PM EST
Moon 10:08 PM EST (1/2) 9:56 AM EST (1/2)
Length of Visible Light 10h 11m
Length of Day
9h 07m
Waning Gibbous, 75% of the Moon is Illuminated
Jan 2
Waning Gibbous
Jan 4
Last Quarter
Jan 11
New
Jan 18
First Quarter
Jan 26
Full

Hourly Weather History & Observations

Time (EST) Temp. Windchill Dew Point Humidity Pressure Visibility Wind Dir Wind Speed Gust Speed Precip Events Conditions
12:52 AM 10.0 °F 1.8 °F 1.0 °F 67% 29.96 in 10.0 mi Variable 4.6 mph - N/A   Clear
1:52 AM 8.1 °F -2.0 °F 1.0 °F 73% 29.99 in 10.0 mi WNW 5.8 mph - N/A   Clear
3:52 AM 8.1 °F -0.5 °F 1.0 °F 73% 29.97 in 10.0 mi WNW 4.6 mph - N/A   Clear
4:52 AM 10.0 °F -0.9 °F 1.0 °F 67% 29.95 in 10.0 mi WNW 6.9 mph - N/A   Clear
5:52 AM 9.0 °F -2.2 °F 1.0 °F 70% 29.96 in 10.0 mi West 6.9 mph - N/A   Overcast
7:52 AM 10.9 °F 2.9 °F 3.0 °F 70% 29.94 in 10.0 mi WNW 4.6 mph - N/A   Overcast
8:49 AM 19.4 °F 7.9 °F 8.6 °F 63% 29.90 in 10.0 mi West 10.4 mph 16.1 mph N/A   Overcast
8:52 AM 19.9 °F 7.3 °F 8.1 °F 60% 29.94 in 10.0 mi West 12.7 mph 21.9 mph N/A   Overcast
8:59 AM 21.2 °F 8.3 °F 8.6 °F 58% 29.91 in 10.0 mi West 13.8 mph 23.0 mph N/A   Overcast
9:49 AM 21.2 °F 7.8 °F 8.6 °F 58% 29.93 in 3.0 mi West 15.0 mph 26.5 mph 0.00 in Snow Light Snow
10:03 AM 21.2 °F 9.5 °F 10.4 °F 63% 29.93 in 2.0 mi West 11.5 mph - 0.00 in Snow Light Snow
10:13 AM 21.2 °F 8.9 °F 10.4 °F 63% 29.93 in 5.0 mi West 12.7 mph 19.6 mph 0.00 in   Haze
10:52 AM 21.9 °F 7.3 °F 10.0 °F 60% 29.96 in 10.0 mi West 18.4 mph 28.8 mph 0.00 in   Overcast
11:52 AM 23.0 °F 9.2 °F 10.0 °F 58% 29.96 in 10.0 mi West 17.3 mph 24.2 mph N/A   Overcast
12:52 PM 24.1 °F 10.1 °F 10.0 °F 55% 29.95 in 10.0 mi West 18.4 mph 26.5 mph N/A   Overcast
1:52 PM 24.1 °F 11.5 °F 9.0 °F 53% 29.96 in 10.0 mi West 15.0 mph 32.2 mph N/A   Overcast
2:52 PM 24.1 °F 11.0 °F 10.0 °F 55% 29.98 in 10.0 mi West 16.1 mph 23.0 mph N/A   Overcast
3:52 PM 24.1 °F 13.1 °F 12.0 °F 60% 30.01 in 7.0 mi West 11.5 mph 25.3 mph 0.00 in   Overcast
4:52 PM 23.0 °F 11.7 °F 10.0 °F 58% 30.03 in 10.0 mi West 11.5 mph 27.6 mph N/A   Overcast
5:52 PM 19.9 °F 11.1 °F 3.9 °F 50% 30.06 in 10.0 mi NW 6.9 mph 17.3 mph N/A   Partly Cloudy
6:52 PM 16.0 °F 4.4 °F 1.9 °F 54% 30.10 in 10.0 mi West 9.2 mph 18.4 mph N/A   Clear
7:52 PM 12.0 °F -2.0 °F -0.0 °F 59% 30.12 in 10.0 mi West 11.5 mph 16.1 mph N/A   Clear
8:52 PM 9.0 °F -2.2 °F -2.0 °F 61% 30.15 in 10.0 mi WNW 6.9 mph - N/A   Clear
9:52 PM 6.1 °F -4.3 °F -4.0 °F 63% 30.17 in 10.0 mi NNW 5.8 mph - N/A   Clear
10:52 PM 3.9 °F - -6.0 °F 64% 30.19 in 10.0 mi Calm Calm - N/A   Clear
11:52 PM 1.9 °F - -7.1 °F 66% 30.22 in 10.0 mi Calm Calm - N/A   Clear